User: anonymous   Login
Location: Carnetin
(48.9010°N, 2.7059°E)
Time: 12:42:00
(UTC+00:00)
Language:

Okean 1-7 Rocket - Orbit

View from above orbital plane
View from above orbital plane
View from above satellite
View from above satellite

Ground track
Ground track

The orbit data is extracted from the following two-line orbital elements,

1 23318U 94066B   22022.16746288  .00000138  00000-0  15489-4 0  9995
2 23318  82.5395  50.4952 0024777 134.6765 225.6473 14.78948105470923
Epoch (UTC): 22 January 2022 04:01:08
Eccentricity: 0.0024777
inclination: 82.5395°
perigee height: 615 km
apogee height: 650 km
right ascension of ascending node: 50.4952°
argument of perigee: 134.6765°
revolutions per day: 14.78948105
mean anomaly at epoch: 225.6473°
orbit number at epoch: 47092

The dashed part of the orbit path shows where the satellite is in the earth's shadow,  

DLR